星链-4292 (STARLINK-4292 )

导读

STARLINK-4292是美国太空探索技术公司Starlink星链星座中的一颗卫星,于2022年7月17日发射入轨,属于星链组网卫星。作为星链低轨互联网星座的组成部分,它承担着为全球提供高速宽带互联网接入服务的任务,依托低轨道部署优势,能降低通信延迟,补充传统通信网络覆盖盲区,推进全球互联网络覆盖布局。

基本信息
目录编号:
53175
目录名称:
STARLINK-4292
国际标识:
2022-083AV
轨道中心:
EARTH
卫星名称:
星链-4292
卫星全名:
星链-4292 (STARLINK-4292 )
卫星状态:
在轨 (已飞行1431 天)
发射日期:
2022-07-17 UTC
国别 :
美国 (US)
星等 :
--
轨道信息
数据来源 国际轨道数据 AOE轨道数据
星历时间 2026-06-17T09:11:16+0800
10小时前
查看轨道信息
2026-06-16T00:00:00+0800
1天前
查看轨道信息
半长轴 6917.878km 6917.914km
偏心率 0.0001289 0.0001144
轨道倾角 53.161° 53.158°
近地点辐角 88.549° 126.824°
升交点赤经 87.984° 94.204°
平近点角 271.565° 277.928°
近地点 538.849km 538.985km
远地点 540.633km 540.569km
周期 95.438分钟 95.438分钟
每日圈数 15.088408 15.088291
详细信息
固有亮度:
5
最大亮度:
2.5
卫星平台:
Starlink v1.5
覆盖范围:
全球
运营商:
太空探索技术公司
运营商所在国:
美国
制造商(研发单位):
太空探索技术公司
制造商所在国:
美国
使用方式:
暂无
卫星简介
星链(Starlink)计划是由太空探索技术公司(SpaceX)提出的一个巨型低轨卫星互联网星座项目,计划在2019年至2024年间在太空搭建由约1.2万颗卫星组成的“星链”网络,其中1584颗将部署在地球上空550千米处的近地轨道,并从2020年开始工作。该卫星仍在工作。
2D轨道图
3D轨道图
轨道高度分析图
轨道倾角分析图
轨道综合分析图
查看轨道综合分析图